Weather in Squamish

Canada     49°42′09″N   123°09′01″W
temp.,
°C
wind,
m/s
gust,
m/s
humid.,
%
clouds,
%
prec.,
mm/h
press.,
hPa
HPBL,
m
14 may, fri
fri1423:00+5n22885 0.0 102233
02:00+4n22875 0.0 102334
05:00+4n22885 0.0 102235
08:00+9n12690 0.0 1020165
11:00+16sw11491 0.0 10191296
14:00+19sw123999 0.0 10182124
17:00+18sw2241100 0.0 10161939
20:00+13ssw11694 0.0 101621
15 may, sat
sat1523:00+8nne11855 0.0 101812
02:00+7n22835 0.0 101828
05:00+6n228254 0.0 101925
08:00+11n1260100 0.0 1018206
11:00+18sw114240 0.0 10161085
14:00+21ssw22365 0.0 10141897
17:00+20ssw324253 0.0 10131757
20:00+15ssw22665 0.0 101349
16 may, sun
sun1623:00+9se008011 0.0 101410
02:00+8ne1183100 0.0 101410
05:00+7ne01865 0.0 101410
08:00+12s12664 0.0 1013296
11:00+16ssw325432 0.0 10121161
14:00+16ssw3357100 0.0 10121398
17:00+16ssw335965 0.1 10111210
20:00+12ssw347759 0.1 1011220
17 may, mon
mon1723:00+10ssw238597 0.1 1011150
02:00+8ssw249697 0.4 1011199
05:00+8ssw3498100 2.8 1012281
08:00+7ssw3591100 1.8 1013374
11:00+8ssw3377100 2.9 1015857
14:00+12ssw344196 0.2 10141995
17:00+12ssw3342100 0.2 10131733
20:00+9s2368100 0.0 101499
18 may, tue
tue1823:00+7se1279100 0.0 101440
02:00+6sse2378100 0.2 101498
05:00+3sse2398100 2.9 1015465
08:00+2sse2399100 5.4 1015320
11:00+3sse1398100 9.8 1015494
14:00+4s2397100 3.6 1016592
17:00+4s1297100 4.8 1016688
20:00+4se1195100 0.3 1015518